cover

 

Get it on iTunes StoreListen on Apple Music

Space Cat

#Trackname / Key / BPM / Publish dateArtists, Remixers / Label
1 145 bpm, 7A / D minor, 2019-04-15, Psy-Trance,  6  1
2 144 bpm, 9B / G major, 2019-03-22, Psy-Trance,  0  11
3 140 bpm, 2B / F# major, 2018-12-17, Psy-Trance,  1  9
4 144 bpm, 12B / E major, 2018-11-26, Psy-Trance,  0  15
5 142 bpm, 9B / G major, 2018-11-12, Psy-Trance,  7  1
1
6 146 bpm, 10A / B minor, 2018-09-28, Psy-Trance,  0  4
7 142 bpm, 7B / F major, 2018-08-03, Psy-Trance,  0  18
8 142 bpm, 12B / E major, 2018-08-03, Psy-Trance,  0  18
9 142 bpm, 2B / F# major, 2018-06-25, Psy-Trance,  2  1
10 142 bpm, 12B / E major, 2018-03-19, Psy-Trance,  2  2
11 122 bpm, 7B / F major, 2018-03-19, Psy-Trance,  5  2
1
12 144 bpm, 6A / G minor, 2018-03-05, Psy-Trance,  1  10
13 144 bpm, 2B / F# major, 2018-02-12, Psy-Trance,  2  1
14 140 bpm, 9B / G major, 2018-01-15, Psy-Trance,  13  1
1
15 140 bpm, 7B / F major, 2017-12-22, Psy-Trance,  2  20
16 145 bpm, 8A / A minor, 2017-07-24, Psy-Trance,  0  9
17 138 bpm, 5B / Eb major, 2017-06-12, Psy-Trance,  1  8
18 142 bpm, 12B / E major, 2017-05-08, Psy-Trance,  1  19
19 145 bpm, 2A / Eb minor, 2017-03-20, Psy-Trance,  0  9
20 140 bpm, 7B / F major, 2017-03-10, Psy-Trance,  3  1
21 144 bpm, 6A / G minor, 2017-01-30, Psy-Trance,  3  1
22 142 bpm, 11B / A major, 2016-11-07, Psy-Trance,  1  2
23 142 bpm, 11A / F# minor, 2016-11-07, Psy-Trance,  9  2
24 140 bpm, 5B / Eb major, 2016-10-14, Psy-Trance,  0  18
25 140 bpm, 7B / F major, 2016-09-30, Psy-Trance,  0  18
26 142 bpm, 1A / Ab minor, 2016-08-05, Psy-Trance,  0  18
27 142 bpm, 1B / B major, 2016-07-22, Psy-Trance,  1  18
28 140 bpm, 7B / F major, 2016-06-20, Psy-Trance,  5  2
29 140 bpm, 5B / Eb major, 2016-06-20, Psy-Trance,  2  2
30 142 bpm, 10B / D major, 2016-06-13, Psy-Trance,  1  10
31 142 bpm, 1A / Ab minor, 2016-05-30, Psy-Trance,  5  2
32 142 bpm, 1B / B major, 2016-05-30, Psy-Trance,  2  2
33 138 bpm, / , 2016-03-04, Psy-Trance,  2  18
34 140 bpm, 7B / F major, 2016-02-29, Psy-Trance,  0  14
35 142 bpm, 2B / F# major, 2015-12-28, Psy-Trance,  0  12
36 145 bpm, 6A / G minor, 2015-12-28, Psy-Trance,  0  20
37 138 bpm, 11A / F# minor, 2015-10-26, Psy-Trance,  10  1
38 140 bpm, 11A / F# minor, 2015-10-26, Psy-Trance,  2  3
39 140 bpm, 7B / F major, 2015-10-12, Psy-Trance,  1  2
40 142 bpm, 11B / A major, 2015-10-12, Psy-Trance,  2  2
41 140 bpm, 9B / G major, 2015-09-14, Psy-Trance,  0  9
42 142 bpm, 2B / F# major, 2015-07-06, Psy-Trance,  5  2
43 142 bpm, 2B / F# major, 2015-07-06, Psy-Trance,  3  2
44 142 bpm, 2B / F# major, 2015-06-22, Psy-Trance,  0  46
45 145 bpm, 6A / G minor, 2015-06-22, Psy-Trance,  0  9
46 142 bpm, 11B / A major, 2015-05-25, Psy-Trance,  0  8
47 140 bpm, 2B / F# major, 2015-02-25, Psy-Trance,  1  2
48 139 bpm, 12B / E major, 2015-02-25, Psy-Trance,  1  2
49 145 bpm, 3A / Bb minor, 2014-10-06, Psy-Trance,  1  2
50 143 bpm, 7B / F major, 2014-09-22, Psy-Trance,  1  9
51 142 bpm, 10A / B minor, 2014-09-22, Psy-Trance,  0  9
52 140 bpm, 7B / F major, 2014-09-22, Psy-Trance,  2  9
53 146 bpm, 9A / E minor, 2014-09-22, Psy-Trance,  1  9
54 145 bpm, 5A / C minor, 2014-09-22, Psy-Trance,  1  9
55 144 bpm, 4B / Ab major, 2014-09-22, Psy-Trance,  6  9
56 144 bpm, 12B / E major, 2014-09-22, Psy-Trance,  1  9
57 140 bpm, 9A / E minor, 2014-09-22, Psy-Trance,  1  9
58 140 bpm, 8A / A minor, 2014-09-22, Psy-Trance,  1  9
59 143 bpm, 7B / F major, 2014-09-08, Psy-Trance,  0  2
60 140 bpm, 8A / A minor, 2014-09-08, Psy-Trance,  1  2
61 142 bpm, 11B / A major, 2014-06-04, Psy-Trance,  1  3
62 140 bpm, 9A / E minor, 2014-03-03, Psy-Trance,  2  11
63 93 bpm, 9B / G major, 2014-02-26, Psy-Trance,  0  3
64 142 bpm, 7B / F major, 2014-02-26, Psy-Trance,  1  3
65 139 bpm, 7A / D minor, 2014-02-26, Psy-Trance,  3  3
66 143 bpm, 8A / A minor, 2013-11-04, Psy-Trance,  2  1
67 145 bpm, 8A / A minor, 2013-10-23, Psy-Trance,  0  11
68 140 bpm, 8A / A minor, 2013-09-16, Psy-Trance,  1  4
69 140 bpm, 1A / Ab minor, 2013-09-16, Psy-Trance,  1  4
70 138 bpm, 9B / G major, 2013-09-16, Psy-Trance,  0  4
71 137 bpm, 9B / G major, 2013-09-16, Psy-Trance,  2  4
72 143 bpm, 8A / A minor, 2013-09-11, Psy-Trance,  0  9
73 145 bpm, 9A / E minor, 2013-09-11, Psy-Trance,  0  9
74 144 bpm, 9A / E minor, 2013-09-11, Psy-Trance,  0  9
75 145 bpm, 6A / G minor, 2013-09-11, Psy-Trance,  0  9
76 146 bpm, 8A / A minor, 2013-09-11, Psy-Trance,  0  9
77 145 bpm, 8A / A minor, 2013-09-11, Psy-Trance,  0  9
78 145 bpm, 8A / A minor, 2013-09-11, Psy-Trance,  0  9
79 145 bpm, 3A / Bb minor, 2013-09-11, Psy-Trance,  0  9
80 145 bpm, 7B / F major, 2013-09-11, Psy-Trance,  0  9
81 146 bpm, 8A / A minor, 2013-08-07, Psy-Trance,  0  9
82 145 bpm, 5A / C minor, 2013-07-24, Psy-Trance,  0  10
83 135 bpm, 11B / A major, 2013-06-17, Psy-Trance,  1  18
84 135 bpm, 11B / A major, 2012-12-13, Psy-Trance,  0  20
85 144 bpm, 8A / A minor, 2012-09-14, Psy-Trance,  0  10
86 142 bpm, 11B / A major, 2012-09-05, Psy-Trance,  1  3
87 145 bpm, 8A / A minor, 2012-08-15, Psy-Trance,  2  1
88 142 bpm, 8A / A minor, 2012-06-15, Psy-Trance,  0  3
89 145 bpm, 8A / A minor, 2012-03-09, Psy-Trance,  1  10
90 145 bpm, 8A / A minor, 2012-01-18, Psy-Trance,  0  9
91 145 bpm, 11B / A major, 2012-01-17, Psy-Trance,  0  10
92 145 bpm, 11B / A major, 2012-01-10, Psy-Trance,  0  9
93 146 bpm, 10A / B minor, 2011-12-23, Psy-Trance,  1  9
94 144 bpm, 5A / C minor, 2011-12-21, Psy-Trance,  0  8
95 142 bpm, 4A / F minor, 2011-12-21, Psy-Trance,  0  9
96 146 bpm, 4A / F minor, 2011-12-07, Psy-Trance,  0  9
97 145 bpm, 8A / A minor, 2011-11-18, Psy-Trance,  0  10
98 144 bpm, 8A / A minor, 2011-10-26, Psy-Trance,  1  9
99 145 bpm, 8A / A minor, 2011-07-06, Psy-Trance,  0  11
100 143 bpm, 8A / A minor, 2011-04-13, Psy-Trance,  0  9
×

Sign in

Sign in to access your personalized pages, follow artists and labels you love, and create playlists fromyour favorite tracks.

Please wait...